Hat Yai, Thailand

9:12 AM ICT on August 26, 2016 (GMT +0700)
Hat Yai International

Weather History for VTSS - August, 2013

Change the Weather History Date:

Thursday, August 8, 2013

  Actual Average Record
Temperature  
Mean Temperature 81 °F -  
Max Temperature 89 °F 88 °F 96 °F (2011)
Min Temperature 73 °F 74 °F 72 °F (2014)
Cooling Degree Days 16    
Growing Degree Days 31 (Base 50)    
Moisture  
Dew Point 73 °F    
Average Humidity 88    
Maximum Humidity 94    
Minimum Humidity 59    
Precipitation  
Precipitation 0.47 in - - ()
Sea Level Pressure  
Sea Level Pressure 29.80 in    
Wind  
Wind Speed 4 mph ()    
Max Wind Speed 20 mph    
Max Gust Speed -    
Visibility 5.3 miles    
Events Rain , Thunderstorm    
Averages and records for this station are not official NWS values.
T = Trace of Precipitation, MM = Missing Value Source: Averaged Metar Reports

Daily Weather History Graph

Daily Weather History Graph

Search for Another Location

Airport or City:

Trip Planner

Search our weather history database for the weather conditions in past years. The results will help you decide how hot, cold, wet, or windy it might be!

Date:

Astronomy

Aug. 08, 2013 Rise Set
Actual Time 6:12 AM ICT 6:35 PM ICT
Civil Twilight 5:50 AM ICT 6:57 PM ICT
Nautical Twilight 5:25 AM ICT 7:22 PM ICT
Astronomical Twilight 4:59 AM ICT 7:48 PM ICT
Moon 7:02 AM ICT (8/8) 7:30 PM ICT (8/8)
Length of Visible Light 13h 06m
Length of Day
12h 22m
New Moon, 2% of the Moon is Illuminated
Aug 8
New Moon
Aug 14
First Quarter
Aug 21
Full
Aug 28
Last Quarter
Sep 5
New

Hourly Weather History & Observations

Time (ICT) Temp. Heat Index Dew Point Humidity Pressure Visibility Wind Dir Wind Speed Gust Speed Precip Events Conditions
12:00 AM 78.8 °F - 73.4 °F 83% 29.83 in 6.2 mi South 3.5 mph - N/A   Overcast
12:30 AM 77.0 °F - 73.4 °F 89% 29.83 in 6.2 mi South 5.8 mph - N/A   Overcast
1:00 AM 77 °F - 73 °F 84% 29.81 in 6 mi SSW 3.5 mph - -   Partly Cloudy
1:00 AM 77.0 °F - 73.4 °F 89% 29.80 in 6.2 mi SSW 3.5 mph - N/A   Mostly Cloudy
1:30 AM 77.0 °F - 73.4 °F 89% 29.80 in 6.2 mi Calm Calm - N/A   Mostly Cloudy
2:00 AM 77.0 °F - 73.4 °F 89% 29.80 in 5.0 mi SSE 3.5 mph - N/A   Mostly Cloudy
2:30 AM 77.0 °F - 73.4 °F 89% 29.80 in 5.0 mi Calm Calm - N/A   Overcast
3:00 AM 77.0 °F - 73.4 °F 89% 29.77 in 5.0 mi Calm Calm - N/A   Overcast
3:30 AM 77.0 °F - 73.4 °F 89% 29.77 in 4.3 mi Calm Calm - N/A   Overcast
4:00 AM 77.0 °F - 73.4 °F 89% 29.77 in 4.3 mi Calm Calm - N/A   Overcast
4:30 AM 77.0 °F - 73.4 °F 89% 29.77 in 4.3 mi Calm Calm - N/A   Overcast
5:00 AM 77.0 °F - 75.2 °F 94% 29.77 in 4.3 mi SSW 3.5 mph - N/A Rain Light Rain
5:30 AM 77.0 °F - 73.4 °F 89% 29.77 in 5.6 mi NNE 2.3 mph - N/A   Overcast
6:00 AM 77.0 °F - 73.4 °F 89% 29.77 in 6.2 mi ESE 2.3 mph - N/A   Mostly Cloudy
6:30 AM 77.0 °F - 73.4 °F 89% 29.77 in 4.3 mi ESE 2.3 mph - N/A   Overcast
7:00 AM 77.0 °F - 75.2 °F 94% 29.80 in 4.3 mi North 3.5 mph - N/A   Mostly Cloudy
7:30 AM 77.0 °F - 73.4 °F 89% 29.80 in 4.3 mi Calm Calm - N/A Rain Light Rain
8:00 AM 77.0 °F - 75.2 °F 94% 29.83 in 3.7 mi SW 4.6 mph - N/A Rain Light Rain
8:30 AM 77.0 °F - 73.4 °F 89% 29.83 in 6.2 mi WSW 3.5 mph - N/A   Mostly Cloudy
9:00 AM 78.8 °F - 75.2 °F 89% 29.83 in 6.2 mi Variable 2.3 mph - N/A   Mostly Cloudy
9:30 AM 82.4 °F 89.5 °F 75.2 °F 79% 29.83 in 6.2 mi SW 4.6 mph - N/A   Mostly Cloudy
10:00 AM 82.4 °F 89.5 °F 75.2 °F 79% 29.86 in 6.2 mi West 4.6 mph - N/A   Mostly Cloudy
10:30 AM 84.2 °F 94.1 °F 77.0 °F 79% 29.83 in 6.2 mi WSW 6.9 mph - N/A   Mostly Cloudy
11:00 AM 86.0 °F 95.1 °F 75.2 °F 70% 29.83 in 6.2 mi WSW 8.1 mph - N/A   Mostly Cloudy
11:30 AM 86.0 °F 95.1 °F 75.2 °F 70% 29.83 in 6.2 mi West 6.9 mph - N/A   Mostly Cloudy
12:00 PM 89.6 °F 99.8 °F 75.2 °F 62% 29.80 in 6.2 mi West 6.9 mph - N/A   Mostly Cloudy
12:30 PM 89.6 °F 98.2 °F 73.4 °F 59% 29.80 in 5.6 mi West 13.8 mph - N/A   Mostly Cloudy
1:00 PM 78 °F - 73 °F 79% 29.83 in 4 mi West 19.6 mph - - Rain , Thunderstorm Thunderstorms and Rain
1:00 PM 77.0 °F - 73.4 °F 89% 29.80 in 4.3 mi West 19.6 mph - N/A Rain Rain
1:30 PM 73.4 °F - 71.6 °F 94% 29.80 in 2.5 mi SW 11.5 mph - N/A Rain Rain
2:00 PM 75.2 °F - 71.6 °F 89% 29.80 in 5.0 mi South 4.6 mph - N/A Rain Rain
2:30 PM 75.2 °F - 71.6 °F 89% 29.80 in 5.6 mi South 4.6 mph - N/A Rain Light Rain
3:00 PM 75.2 °F - 71.6 °F 89% 29.77 in 6.2 mi SSW 4.6 mph - N/A Rain Light Rain
3:30 PM 75.2 °F - 71.6 °F 89% 29.77 in 6.2 mi South 4.6 mph - N/A   Mostly Cloudy
4:00 PM 75.2 °F - 73.4 °F 94% 29.74 in 6.2 mi South 6.9 mph - N/A Rain Light Rain
4:30 PM 75.2 °F - 73.4 °F 94% 29.74 in 6.2 mi SSE 3.5 mph - N/A Rain Light Rain
5:00 PM 75.2 °F - 73.4 °F 94% 29.74 in 6.2 mi ESE 3.5 mph - N/A Rain Light Rain
5:30 PM 75.2 °F - 73.4 °F 94% 29.74 in 6.2 mi ESE 3.5 mph - N/A   Overcast
6:00 PM 75.2 °F - 73.4 °F 94% 29.74 in 6.2 mi ESE 2.3 mph - N/A   Overcast
6:30 PM 75.2 °F - 73.4 °F 94% 29.74 in 5.0 mi ENE 3.5 mph - N/A   Overcast
7:00 PM 75 °F - 73 °F 92% 29.78 in 4 mi East 2.3 mph - -   Mist
7:00 PM 75.2 °F - 73.4 °F 94% 29.77 in 4.3 mi East 2.3 mph - N/A   Overcast
7:30 PM 75.2 °F - 73.4 °F 94% 29.77 in 5.0 mi SE 3.5 mph - N/A   Overcast
8:00 PM 75.2 °F - 73.4 °F 94% 29.77 in 4.3 mi South 3.5 mph - N/A   Overcast
8:30 PM 75.2 °F - 71.6 °F 89% 29.80 in 5.0 mi South 4.6 mph - N/A   Mostly Cloudy
9:00 PM 75.2 °F - 73.4 °F 94% 29.83 in 5.0 mi South 2.3 mph - N/A   Mostly Cloudy
9:30 PM 73.4 °F - 71.6 °F 94% 29.83 in 5.0 mi South 2.3 mph - N/A   Mostly Cloudy
10:00 PM 73.4 °F - 71.6 °F 94% 29.83 in 5.0 mi East 2.3 mph - N/A   Overcast
10:30 PM 73.4 °F - 71.6 °F 94% 29.86 in 5.0 mi Calm Calm - N/A   Overcast
11:00 PM 73.4 °F - 71.6 °F 94% 29.86 in 6.2 mi Calm Calm - N/A   Overcast
11:30 PM 73.4 °F - 71.6 °F 94% 29.86 in 6.2 mi Calm Calm - N/A   Overcast